Probability
33 31 28 25 21 18 16 16 15 12 10 9 9 10 10 12 15 16 14 14 14 14 16 17 17 17 16 13 11 11 10 8 6 5 6 8 9 11 13 12 9 7 7
35 34 30 26 21 16 14 14 14 11 8 8 9 10 10 12 16 18 17 17 16 16 18 19 20 19 17 13 11 9 8 7 7 6 7 9 12 13 14 12 9 7 7
36 35 31 26 20 14 12 12 12 9 7 7 9 10 10 12 16 18 18 18 18 18 19 21 20 19 16 12 10 9 7 6 6 6 7 10 13 15 15 12 9 8 8
34 34 32 27 20 15 13 12 11 8 6 6 9 12 13 14 14 16 17 17 18 18 19 19 17 16 14 12 10 10 9 7 6 6 7 9 12 14 15 13 11 10 10
31 31 30 27 22 18 15 14 15 13 9 9 12 15 16 15 13 13 15 16 17 19 19 17 15 14 12 10 8 9 9 8 6 6 7 8 11 14 15 13 12 11 11
30 28 26 25 22 19 17 18 20 18 15 15 16 17 17 15 12 11 13 16 18 20 21 18 15 14 11 7 4 4 5 6 6 6 7 9 12 15 15 13 11 10 10
29 26 25 25 23 20 19 21 22 20 20 19 18 17 17 14 11 8 10 15 18 19 20 19 16 14 13 10 6 4 5 5 5 7 8 10 12 15 16 13 10 11 11
27 25 25 26 25 23 23 23 22 21 22 21 20 19 18 15 11 7 8 12 15 16 18 18 16 14 13 12 11 10 9 8 6 6 7 8 9 12 14 12 11 11 11
22 23 25 26 25 25 24 23 21 22 23 23 23 22 21 18 12 6 5 9 13 15 16 15 13 12 10 10 12 13 13 11 7 5 5 5 5 6 8 10 11 11 11
21 22 24 25 26 25 24 23 22 22 23 23 23 23 23 20 12 5 4 8 12 13 14 13 10 8 6 6 10 12 12 10 9 7 4 3 3 3 3 7 10 11 12
20 22 23 24 25 24 23 23 23 23 22 22 21 21 21 17 10 3 2 6 10 12 13 11 8 5 2 3 6 9 7 7 9 9 6 4 4 4 4 6 11 12 12
20 22 24 24 24 23 23 23 23 22 20 18 17 17 16 13 8 3 1 2 7 12 14 11 7 3 1 0 2 3 2 3 8 9 7 5 6 7 6 7 10 11 11
21 22 24 25 24 23 23 23 21 18 16 14 14 13 13 12 8 4 2 1 3 9 11 7 4 2 1 0 1 1 1 3 7 9 7 7 8 8 7 7 7 8 9
21 21 21 22 22 23 22 20 18 15 13 13 13 13 12 11 9 6 4 2 2 4 4 3 2 2 2 2 2 2 3 5 7 8 9 10 10 9 8 7 7 7 7
19 19 17 16 16 18 17 14 12 11 10 9 10 10 10 8 6 5 4 4 3 2 1 1 2 4 5 5 6 6 6 7 7 8 10 11 11 10 9 8 8 8 7
17 16 14 12 12 13 12 8 6 5 4 3 4 5 4 3 2 2 2 2 1 1 1 2 4 5 6 7 8 8 7 7 7 7 8 9 10 10 9 9 9 8 7
13 13 12 11 12 11 9 6 5 3 2 1 0 1 1 0 0 0 0 0 0 0 2 3 5 5 6 8 9 8 7 6 7 6 6 7 9 8 7 8 9 7 6
9 10 9 10 10 10 7 7 7 6 5 3 2 0 0 0 0 0 0 0 0 1 1 3 4 6 6 7 8 8 6 6 7 7 7 7 8 8 6 6 6 6 4
7 7 7 7 7 7 7 7 7 7 7 6 4 2 0 0 0 0 0 0 1 1 2 2 4 6 6 6 6 6 5 5 7 8 8 8 8 7 6 5 5 5 5
6 5 5 5 4 5 6 7 7 8 8 7 6 4 2 1 1 1 1 1 1 2 2 2 4 5 5 4 4 5 5 5 7 9 10 9 8 7 6 6 7 7 7
5 4 3 3 4 5 7 8 8 8 7 6 5 4 2 2 2 2 2 2 1 2 2 2 3 4 4 4 4 5 5 6 8 9 9 9 8 7 6 6 8 8 7
5 4 3 3 5 6 7 8 8 7 6 4 2 2 1 1 1 1 1 1 1 1 1 1 2 4 5 5 6 5 5 5 6 7 7 7 7 6 5 5 6 6 6
4 4 5 5 6 6 6 6 6 6 4 2 1 0 0 1 1 1 0 0 1 1 1 1 3 5 6 7 7 6 4 4 4 6 6 6 6 5 4 3 4 4 4
3 3 4 5 5 5 5 4 4 3 3 1 1 1 1 2 2 2 1 1 2 2 2 3 4 6 7 7 7 6 5 4 4 6 6 6 6 4 3 3 3 3 3
3 3 3 3 2 2 2 1 1 1 1 1 2 2 2 2 2 3 3 3 3 3 3 3 4 5 6 6 6 5 4 3 3 5 6 6 6 4 3 3 3 3 3
4 3 2 1 0 0 0 0 0 0 0 1 1 1 2 2 3 3 3 3 3 3 3 3 4 4 4 4 4 4 2 1 1 3 5 6 6 4 3 3 3 3 3
Wind_Speed
6 6 5 5 4 4 4 4 4 4 3 4 4 4 4 4 3 3 4 3 4 4 4 3 4 4 4 4 3 4 4 4 5 5 3 2 3 5 4 4 5 5 4
6 6 5 5 4 4 4 3 3 4 4 5 5 4 4 4 4 4 4 4 4 4 4 4 5 4 4 4 4 4 4 4 6 7 5 4 4 4 4 6 5 4 4
5 6 5 5 5 4 3 3 4 4 5 5 5 5 4 4 4 4 4 4 4 4 4 4 4 4 4 4 5 4 4 5 5 6 6 4 4 3 4 5 5 4 5
4 5 5 5 4 4 3 4 4 4 5 5 5 5 5 5 4 4 4 4 4 4 4 4 4 4 4 5 5 4 5 5 5 5 5 4 4 3 4 4 4 3 4
4 4 4 4 3 3 4 4 5 5 5 5 5 5 5 5 4 3 4 5 5 5 4 4 4 4 4 5 5 4 4 5 5 5 5 4 4 3 4 4 4 4 4
4 4 3 3 4 3 4 4 5 5 5 4 4 4 5 4 1 3 5 5 5 5 5 5 5 5 5 6 6 6 7 7 6 6 5 5 5 5 4 5 5 5 4
3 3 4 4 4 4 4 4 4 4 4 5 4 4 5 3 3 4 5 6 5 5 5 5 4 3 4 4 6 8 8 9 8 8 7 7 7 4 5 6 5 6 6
3 3 3 3 3 3 4 4 4 3 4 4 4 4 4 3 3 4 5 6 5 5 5 5 5 4 4 5 6 6 6 5 7 7 6 7 6 5 6 7 7 7 7
3 3 4 4 3 4 4 4 4 3 4 4 4 4 4 3 3 4 6 5 5 6 5 5 5 5 3 5 7 6 6 6 6 6 6 7 6 7 7 6 6 6 6
3 3 3 4 4 5 5 5 4 4 4 4 4 4 4 4 3 4 6 5 5 5 4 4 4 5 4 5 7 6 6 6 6 5 7 8 8 8 9 8 7 6 6
3 3 4 4 5 5 4 4 4 4 4 4 4 4 4 4 3 4 4 5 5 5 4 4 2 3 5 6 8 6 6 7 7 7 6 6 6 5 6 6 6 6 6
3 3 3 4 5 3 4 4 4 5 5 5 4 4 3 3 3 3 4 5 7 6 5 4 2 2 5 7 6 5 7 8 6 5 5 5 5 4 4 4 5 6 6
3 3 3 4 4 4 4 4 4 5 5 4 4 4 3 2 2 4 6 6 7 6 5 4 5 5 7 7 8 8 8 6 6 6 5 5 4 3 4 3 4 5 6
3 3 3 3 4 3 3 3 3 4 4 4 4 4 3 3 2 1 2 4 5 6 5 4 7 8 8 6 5 6 6 5 5 5 5 5 4 3 4 4 4 4 4
3 3 3 4 3 3 3 3 3 2 3 5 5 4 4 3 2 2 4 4 4 4 5 5 4 4 4 4 4 3 4 4 4 5 5 4 4 4 4 4 3 4 5
3 3 3 3 2 3 2 2 1 2 2 3 3 5 3 2 2 2 3 4 5 5 6 5 4 4 4 4 4 4 3 3 3 4 4 4 4 4 4 3 3 4 4
3 3 3 3 3 3 3 3 2 1 2 3 3 3 3 3 3 3 3 5 6 6 6 5 4 4 4 4 4 4 4 3 3 4 4 4 4 4 4 4 3 4 4
3 2 3 3 3 3 3 3 3 3 2 2 2 4 4 4 4 4 4 4 4 4 5 4 4 4 4 4 4 4 4 3 3 3 3 4 4 4 4 4 3 4 4
3 2 2 3 3 3 3 3 3 3 3 2 2 2 4 5 6 5 5 4 4 4 4 4 4 4 4 4 3 3 4 3 3 3 3 4 4 4 4 4 3 3 4
2 1 3 3 3 2 3 3 3 3 3 3 2 2 1 3 3 2 3 4 4 4 4 4 4 4 4 4 4 4 4 3 3 3 3 3 4 3 4 4 4 4 4
2 2 3 4 3 2 2 3 3 3 3 3 2 1 3 5 4 4 3 3 4 4 4 4 4 4 4 3 3 4 4 3 3 3 3 3 3 3 3 4 4 3 3
3 2 2 3 2 2 3 3 3 3 3 4 3 1 3 5 4 3 3 3 3 4 4 4 4 4 3 3 3 3 4 4 3 3 4 3 3 3 3 3 3 2 2
3 3 2 2 2 2 3 3 3 3 3 3 3 3 2 3 4 3 3 3 3 3 3 3 4 3 3 3 3 3 4 4 4 4 4 3 3 3 3 3 3 2 2
3 3 2 2 2 3 3 3 3 3 3 3 3 3 3 3 3 4 3 3 3 3 3 3 4 4 5 4 3 3 2 4 5 4 5 4 4 3 3 3 3 3 3
2 2 2 2 2 3 3 3 3 3 3 3 3 3 3 3 3 3 3 3 4 4 4 4 4 4 5 5 4 3 3 3 4 6 5 4 4 3 3 3 3 3 3
2 2 2 2 3 3 3 3 3 3 3 3 3 3 3 3 3 3 3 3 4 4 4 4 4 5 5 4 3 2 1 2 3 5 5 4 3 3 3 3 4 3 3
Wind_Direction
197 195 205 206 215 223 230 237 244 254 256 259 263 262 260 259 258 258 264 262 258 260 261 254 259 275 277 274 266 264 264 268 272 281 271 270 277 282 281 271 259 255 227
195 192 199 201 206 216 226 236 245 254 256 255 257 256 260 260 263 258 262 261 257 256 258 259 260 259 261 272 275 273 272 270 270 281 283 269 260 264 271 274 271 265 260
193 197 196 199 196 207 218 234 248 254 261 260 255 254 257 258 254 253 254 257 258 258 256 255 258 260 260 267 267 270 271 263 261 269 274 277 270 267 271 268 270 273 267
197 200 196 199 199 206 221 234 245 253 255 258 258 257 256 253 250 253 251 251 257 260 259 259 258 254 254 261 258 260 269 273 268 266 271 271 263 256 259 268 271 261 269
193 196 194 191 196 210 219 230 236 245 252 255 260 260 257 249 250 260 261 254 256 259 258 260 255 252 272 271 279 279 274 271 272 269 271 273 277 273 268 272 274 273 255
186 193 191 191 193 209 221 230 234 242 253 253 250 255 259 266 317 278 270 261 254 255 258 258 250 229 237 242 260 275 278 272 278 280 278 279 276 277 282 276 278 279 274
190 199 193 197 203 216 228 232 237 237 244 249 249 253 262 271 269 259 266 265 258 258 258 261 268 258 244 250 240 241 244 248 256 269 279 282 282 281 279 274 274 278 283
194 206 213 215 214 227 237 238 248 254 251 252 252 251 259 254 243 253 269 256 257 257 253 250 259 269 268 272 262 254 253 248 249 253 267 274 279 284 270 269 272 265 261
206 216 223 232 233 236 240 242 247 256 257 254 251 252 254 248 223 242 262 260 253 254 252 250 253 255 263 272 260 260 264 261 240 238 255 264 273 269 271 269 263 266 267
225 233 234 236 241 244 248 250 251 251 251 256 253 252 256 257 218 230 260 261 259 258 250 243 240 251 249 253 260 263 265 270 273 252 239 239 242 238 235 253 263 264 271
246 246 246 241 241 240 246 249 251 253 252 250 250 250 249 248 213 207 245 265 272 272 269 263 249 217 236 244 258 267 275 284 273 260 250 243 238 241 237 239 252 264 270
253 252 251 251 251 241 239 244 248 248 241 240 243 251 243 234 234 211 219 249 279 277 278 280 292 235 245 244 248 263 269 270 267 262 260 255 252 252 253 255 251 256 264
252 255 253 253 251 248 241 241 243 242 250 253 252 253 257 255 215 199 212 231 250 263 282 292 276 251 252 237 228 237 245 252 261 263 264 263 268 272 270 255 249 248 250
255 260 262 258 256 257 260 257 262 265 270 272 269 269 264 258 261 255 253 242 238 247 265 259 237 234 243 253 245 232 241 251 261 263 269 270 265 254 253 260 260 253 247
265 274 275 274 277 267 271 291 277 289 293 284 288 288 285 274 307 327 297 289 295 300 288 270 269 261 255 251 248 250 248 244 249 262 269 269 263 259 260 262 262 260 258
263 268 275 275 275 271 265 272 5 271 259 249 271 285 299 323 313 294 285 288 289 280 274 271 271 268 265 264 259 248 243 248 254 259 262 261 263 260 260 261 257 259 259
274 274 276 276 272 267 269 265 267 251 226 222 215 226 246 256 262 261 265 272 265 256 261 271 274 274 274 275 272 266 259 252 259 260 262 266 265 263 262 260 258 259 262
274 267 269 270 272 273 274 271 270 274 273 262 190 186 199 218 237 244 252 262 258 251 271 281 282 279 278 276 275 276 276 267 259 269 271 269 264 262 264 262 259 261 262
275 270 272 276 271 275 279 278 275 276 280 285 273 191 198 214 214 223 234 262 279 280 279 278 280 280 282 284 283 279 278 277 273 270 271 273 266 257 256 260 259 248 255
260 271 276 271 260 257 265 273 277 279 284 286 284 298 270 250 244 228 234 266 277 280 283 282 284 284 280 281 281 275 270 269 271 268 273 272 271 267 259 257 259 250 243
267 229 233 257 259 264 275 278 281 288 292 294 300 353 297 281 281 285 282 276 281 283 280 281 278 277 275 274 279 280 277 274 275 280 280 280 277 273 270 265 258 252 249
274 261 257 266 269 269 282 285 287 289 293 294 296 259 234 268 284 282 282 283 280 279 280 282 283 287 292 294 290 289 287 286 286 283 280 275 268 267 266 264 262 251 248
266 268 264 263 268 272 268 281 288 286 292 295 297 294 272 280 287 288 287 292 293 289 291 286 290 301 303 294 289 288 291 297 299 294 281 270 266 262 259 255 252 246 246
266 267 273 272 272 278 282 289 293 294 289 288 292 295 293 290 296 303 299 299 293 288 287 288 288 294 295 295 291 292 312 317 303 285 277 276 271 268 262 255 251 245 240
269 277 285 287 284 286 289 292 297 300 296 293 296 299 299 297 299 302 302 297 288 284 282 280 285 285 287 287 297 317 350 321 297 297 278 267 267 268 264 255 249 245 239
284 289 286 281 280 282 284 287 292 297 295 297 301 299 300 297 296 294 290 286 285 279 277 273 281 287 287 280 288 310 301 274 276 283 279 269 267 268 269 256 248 243 236